GFSNGP_prec_pwat_231.txt.gz
Precipitable_Water
0.32 0.42 0.47 0.47 0.50 0.50 0.52 0.52 0.39 0.55 0.63 0.75 0.85 0.86 0.94 1.10 1.16 1.31 1.42 1.38 1.45 1.51 1.69 1.68 1.52 1.47 1.44 1.26 1.25 1.25 1.24 1.27 1.26 1.20 1.20 1.20 1.13 1.08 1.01 0.99 0.98 0.96 0.96 0.99
0.24 0.37 0.44 0.48 0.47 0.51 0.54 0.68 0.70 0.78 0.72 0.87 0.94 0.96 0.96 0.97 1.06 1.24 1.37 1.58 1.47 1.58 1.68 1.55 1.52 1.51 1.40 1.27 1.29 1.32 1.28 1.28 1.28 1.18 1.16 1.16 1.13 1.05 1.00 0.95 0.93 0.93 0.91 0.92
0.20 0.30 0.40 0.44 0.47 0.52 0.59 0.70 0.66 0.60 0.73 0.81 0.81 0.85 0.85 0.88 0.96 1.12 1.34 1.58 1.53 1.54 1.52 1.53 1.49 1.47 1.39 1.38 1.39 1.37 1.31 1.32 1.29 1.21 1.12 1.11 1.10 1.04 0.98 0.95 0.98 0.96 0.99 0.98
0.23 0.31 0.28 0.50 0.64 0.70 0.65 0.89 0.80 0.79 0.84 0.86 0.90 0.94 0.96 1.00 1.08 1.29 1.65 1.60 1.51 1.47 1.49 1.50 1.52 1.43 1.41 1.41 1.38 1.36 1.31 1.37 1.36 1.25 1.15 1.12 1.08 1.01 0.98 0.97 0.94 0.93 0.94 0.99
0.28 0.28 0.33 0.53 0.64 0.73 0.72 0.78 0.95 0.82 0.84 0.94 0.97 1.00 0.97 1.16 1.46 1.59 1.82 1.54 1.50 1.48 1.46 1.49 1.48 1.46 1.41 1.36 1.35 1.35 1.37 1.35 1.29 1.26 1.15 1.07 0.95 0.91 0.93 0.89 0.86 0.88 0.94 0.94
0.42 0.32 0.31 0.59 0.77 0.86 0.91 0.67 0.95 0.97 0.95 0.93 0.93 0.76 0.86 1.14 1.32 1.52 1.82 1.61 1.41 1.47 1.39 1.34 1.45 1.48 1.39 1.30 1.32 1.35 1.34 1.28 1.24 1.13 1.03 0.95 0.91 0.89 0.88 0.87 0.84 0.87 0.87 0.94
0.51 0.55 0.63 0.82 0.88 0.89 0.57 0.72 0.99 1.04 1.14 1.22 1.02 1.03 1.00 1.24 1.42 1.62 1.71 1.55 1.49 1.44 1.43 1.44 1.47 1.49 1.34 1.33 1.35 1.37 1.33 1.26 1.11 1.06 0.96 0.93 0.89 0.89 0.89 0.87 0.91 0.91 0.93 1.00
0.59 0.59 0.52 0.89 0.80 0.64 0.84 0.96 1.00 1.03 1.08 1.21 1.47 1.36 1.43 1.44 1.35 1.35 1.37 1.41 1.47 1.42 1.46 1.51 1.55 1.47 1.36 1.34 1.39 1.30 1.21 1.06 0.96 0.91 0.88 0.87 0.86 0.87 0.89 0.93 0.92 0.94 0.95 0.96
0.72 0.71 0.89 1.00 0.90 0.94 0.94 0.87 0.85 0.88 1.13 1.51 1.25 1.22 1.22 1.23 1.24 1.22 1.24 1.28 1.34 1.35 1.40 1.47 1.48 1.45 1.37 1.32 1.20 1.04 0.95 0.86 0.85 0.85 0.85 0.85 0.81 0.81 0.82 0.85 0.85 0.86 0.85 0.85
0.86 0.91 0.88 0.89 0.96 1.01 1.02 0.92 0.97 0.97 1.14 1.42 1.20 1.15 1.13 1.16 1.19 1.17 1.23 1.27 1.31 1.29 1.28 1.27 1.35 1.33 1.22 1.07 0.98 0.89 0.82 0.80 0.81 0.83 0.83 0.83 0.81 0.82 0.82 0.81 0.79 0.80 0.83 0.85
0.92 1.01 0.99 0.99 1.03 1.07 1.04 1.03 0.92 1.10 1.22 1.42 1.26 1.18 1.16 1.17 1.21 1.25 1.26 1.30 1.29 1.25 1.25 1.24 1.23 1.14 1.05 0.95 0.89 0.80 0.79 0.81 0.84 0.85 0.84 0.79 0.81 0.80 0.80 0.83 0.82 0.78 0.80 0.81
0.82 1.04 1.01 1.04 1.05 1.09 1.03 1.03 1.06 1.13 1.09 1.25 1.22 1.18 1.20 1.15 1.18 1.18 1.17 1.21 1.22 1.23 1.20 1.16 1.13 1.04 0.96 0.92 0.86 0.83 0.82 0.80 0.82 0.81 0.79 0.72 0.71 0.72 0.83 0.82 0.82 0.83 0.80 0.76
0.96 1.05 1.02 1.07 1.04 1.01 0.98 0.96 1.00 1.10 1.25 1.25 1.28 1.22 1.17 1.12 1.16 1.18 1.20 1.20 1.21 1.16 1.13 1.12 1.06 1.00 0.99 0.98 0.95 0.88 0.80 0.78 0.78 0.80 0.78 0.71 0.71 0.67 0.64 0.76 0.81 0.78 0.73 0.70
0.98 0.94 0.87 0.90 0.84 0.88 0.86 0.92 0.92 1.08 1.26 1.34 1.33 1.30 1.23 1.16 1.16 1.15 1.16 1.19 1.15 1.08 1.05 1.03 0.99 0.92 0.92 0.96 0.86 0.85 0.83 0.83 0.70 0.68 0.76 0.76 0.73 0.72 0.73 0.71 0.68 0.69 0.73 0.67
0.89 0.87 0.83 0.86 0.96 0.96 0.93 0.90 0.87 0.99 1.02 1.08 1.11 1.17 1.16 1.10 1.10 1.13 1.16 1.11 1.03 0.99 0.95 0.93 0.90 0.86 0.88 0.87 0.83 0.82 0.83 0.79 0.66 0.66 0.69 0.71 0.65 0.63 0.67 0.72 0.70 0.67 0.68 0.67
0.75 0.75 0.72 0.73 0.76 0.81 0.79 0.79 0.79 0.95 1.10 1.08 1.05 1.04 1.05 1.06 1.09 1.08 1.04 0.98 0.89 0.86 0.90 0.89 0.84 0.82 0.81 0.78 0.80 0.80 0.79 0.74 0.65 0.64 0.65 0.62 0.62 0.59 0.62 0.64 0.64 0.64 0.63 0.60
0.60 0.55 0.61 0.64 0.70 0.75 0.78 0.83 0.85 0.94 1.02 1.00 1.13 1.08 1.03 1.03 1.02 1.01 0.98 0.96 0.97 0.98 0.96 0.86 0.81 0.80 0.75 0.71 0.73 0.75 0.73 0.69 0.67 0.65 0.62 0.57 0.57 0.55 0.61 0.60 0.57 0.57 0.60 0.61
0.72 0.72 0.74 0.73 0.71 0.71 0.77 0.83 0.88 0.96 1.06 1.14 1.11 1.09 1.06 1.07 1.09 1.04 1.01 1.08 1.07 1.04 0.98 0.91 0.87 0.84 0.76 0.70 0.71 0.74 0.70 0.68 0.68 0.65 0.62 0.56 0.58 0.56 0.61 0.58 0.56 0.55 0.58 0.58
0.73 0.71 0.72 0.75 0.77 0.78 0.86 0.91 0.95 1.04 1.12 1.16 1.09 1.07 1.14 1.15 1.14 1.15 1.17 1.09 1.02 0.92 0.97 1.01 0.93 0.89 0.90 0.85 0.75 0.77 0.76 0.73 0.70 0.69 0.65 0.63 0.64 0.62 0.60 0.58 0.56 0.56 0.54 0.52
0.78 0.80 0.77 0.74 0.79 0.82 0.83 0.93 1.02 1.05 1.13 1.22 1.19 1.11 1.14 1.09 1.21 1.18 1.18 1.08 1.04 1.01 1.13 1.10 1.04 0.96 1.00 0.98 0.86 0.78 0.77 0.74 0.73 0.73 0.70 0.66 0.64 0.64 0.61 0.59 0.55 0.52 0.51 0.51
0.84 0.85 0.83 0.81 0.79 0.84 0.89 0.92 0.96 0.99 1.10 1.15 1.14 1.13 1.09 1.09 1.24 1.18 1.11 1.03 1.08 1.13 1.18 1.16 1.13 1.04 1.08 1.08 1.02 0.89 0.84 0.82 0.75 0.74 0.72 0.71 0.68 0.66 0.65 0.62 0.61 0.57 0.53 0.53
0.97 0.94 0.91 0.87 0.85 0.84 0.89 0.94 0.96 0.99 1.04 1.11 1.19 1.20 1.18 1.14 1.14 1.17 1.20 1.13 1.17 1.23 1.17 1.14 1.07 1.06 1.06 1.07 1.05 0.99 0.87 0.81 0.75 0.73 0.73 0.70 0.69 0.64 0.64 0.66 0.65 0.64 0.61 0.60
0.95 0.95 0.95 0.93 0.88 0.87 0.88 0.90 0.92 0.97 0.99 1.04 1.11 1.18 1.18 1.21 1.22 1.13 1.05 1.22 1.26 1.28 1.27 1.19 1.14 1.10 1.09 1.07 1.02 0.97 0.92 0.78 0.81 0.76 0.70 0.71 0.68 0.62 0.62 0.63 0.65 0.66 0.66 0.67
0.94 0.95 0.91 0.93 0.89 0.86 0.84 0.89 0.89 0.92 0.96 1.06 1.10 1.18 1.21 1.15 1.18 1.25 1.28 1.29 1.26 1.29 1.27 1.20 1.14 1.05 1.02 0.97 0.88 0.87 0.85 0.77 0.80 0.77 0.70 0.66 0.69 0.74 0.73 0.71 0.71 0.71 0.69 0.69
0.87 0.87 0.91 0.93 0.91 0.87 0.93 0.97 1.00 1.01 1.01 1.03 1.11 1.16 1.18 1.23 1.16 1.21 1.25 1.27 1.21 1.22 1.22 1.21 1.11 0.98 0.88 0.84 0.84 0.83 0.78 0.78 0.76 0.76 0.75 0.75 0.73 0.72 0.71 0.72 0.75 0.72 0.71 0.72
0.86 0.83 0.85 0.88 0.93 0.95 0.98 0.97 0.93 0.95 0.96 0.97 1.07 1.16 1.18 1.20 1.20 1.18 1.17 1.18 1.08 1.00 0.95 0.88 0.80 0.79 0.77 0.77 0.74 0.76 0.78 0.75 0.76 0.77 0.77 0.74 0.73 0.74 0.73 0.72 0.75 0.75 0.73 0.72
0.89 0.88 0.89 0.90 0.97 1.03 0.98 0.94 0.92 0.88 0.93 0.94 0.89 0.97 0.95 0.92 0.94 0.93 0.91 0.90 0.86 0.80 0.73 0.70 0.67 0.74 0.80 0.73 0.73 0.80 0.78 0.82 0.82 0.81 0.77 0.79 0.81 0.79 0.77 0.74 0.72 0.71 0.71 0.71

GFSNGP_prec_pwat_234.txt.gz
Precipitable_Water
0.28 0.33 0.39 0.41 0.46 0.48 0.50 0.49 0.47 0.53 0.54 0.66 0.74 0.77 0.86 0.98 1.03 1.05 1.11 1.24 1.37 1.43 1.52 1.64 1.79 1.72 1.65 1.61 1.49 1.25 1.26 1.25 1.28 1.27 1.19 1.17 1.14 1.12 1.07 1.03 1.00 0.99 0.95 0.97
0.28 0.32 0.34 0.34 0.48 0.49 0.58 0.57 0.58 0.60 0.60 0.81 0.85 0.90 0.88 0.89 1.00 1.05 1.22 1.39 1.45 1.66 1.60 1.64 1.32 1.58 1.65 1.58 1.45 1.34 1.28 1.25 1.31 1.27 1.19 1.13 1.09 1.07 1.05 0.98 0.95 0.93 0.91 0.92
0.23 0.29 0.32 0.31 0.47 0.57 0.58 0.63 0.67 0.63 0.68 0.80 0.80 0.80 0.84 0.91 1.00 1.16 1.26 1.45 1.44 1.63 1.78 1.65 1.56 1.62 1.59 1.58 1.49 1.31 1.29 1.32 1.29 1.29 1.23 1.14 1.10 1.06 0.98 0.95 0.95 0.91 0.93 0.95
0.25 0.25 0.19 0.38 0.72 0.74 0.70 0.76 0.75 0.80 0.80 0.85 0.86 0.92 1.01 1.08 1.14 1.25 1.31 1.48 1.52 1.55 1.84 1.82 1.74 1.64 1.60 1.52 1.37 1.33 1.33 1.34 1.32 1.32 1.26 1.20 1.14 1.05 0.98 0.91 0.86 0.85 0.88 0.92
0.28 0.24 0.32 0.51 0.65 0.70 0.66 0.68 0.84 0.77 0.88 0.92 0.90 0.90 0.91 1.04 1.11 1.18 1.37 1.53 1.59 1.75 1.95 1.79 1.63 1.60 1.57 1.52 1.40 1.32 1.32 1.33 1.33 1.30 1.21 1.10 0.99 0.96 0.90 0.84 0.81 0.79 0.83 0.86
0.43 0.35 0.26 0.51 0.75 0.88 0.88 0.65 1.01 0.99 0.91 0.89 0.86 0.63 0.79 1.10 1.23 1.36 1.40 1.44 1.53 1.66 1.83 1.76 1.60 1.51 1.46 1.43 1.35 1.31 1.33 1.32 1.35 1.23 1.09 1.01 1.00 0.91 0.88 0.84 0.83 0.86 0.88 0.94
0.51 0.48 0.54 0.70 0.79 0.90 0.58 0.68 1.05 1.10 1.08 0.95 0.77 0.84 1.01 1.20 1.23 1.43 1.54 1.40 1.35 1.59 1.65 1.57 1.52 1.52 1.48 1.45 1.38 1.40 1.41 1.37 1.23 1.12 1.04 0.96 0.89 0.87 0.85 0.86 0.90 0.90 0.92 0.95
0.63 0.56 0.53 0.89 0.83 0.65 0.78 0.99 1.05 1.08 1.07 1.02 1.03 1.03 1.12 1.28 1.26 1.50 1.53 1.45 1.49 1.62 1.58 1.52 1.56 1.53 1.51 1.47 1.49 1.47 1.42 1.23 1.09 0.99 0.94 0.92 0.86 0.84 0.85 0.84 0.83 0.85 0.86 0.89
0.79 0.74 0.92 0.95 0.91 1.00 0.96 0.88 0.90 1.01 1.11 1.14 1.01 1.04 1.19 1.38 1.32 1.44 1.51 1.47 1.50 1.51 1.41 1.49 1.53 1.56 1.47 1.46 1.46 1.35 1.14 0.99 0.93 0.92 0.91 0.88 0.81 0.79 0.79 0.80 0.79 0.79 0.82 0.84
0.84 1.04 0.97 0.97 1.01 1.00 1.02 0.95 0.98 1.07 1.08 1.24 1.22 1.32 1.31 1.33 1.34 1.34 1.37 1.40 1.47 1.43 1.37 1.36 1.45 1.45 1.40 1.34 1.23 1.00 0.87 0.85 0.88 0.86 0.83 0.81 0.78 0.80 0.79 0.75 0.75 0.76 0.76 0.75
0.89 0.92 0.99 1.03 1.01 0.99 1.00 1.03 1.00 1.02 1.02 1.10 1.31 1.39 1.41 1.31 1.31 1.34 1.37 1.43 1.43 1.37 1.34 1.37 1.39 1.35 1.32 1.14 0.95 0.85 0.82 0.84 0.85 0.85 0.84 0.77 0.75 0.76 0.78 0.80 0.79 0.73 0.70 0.66
0.78 1.02 0.99 0.96 1.03 1.02 0.93 0.95 1.02 1.07 1.18 1.28 1.29 1.24 1.33 1.28 1.30 1.33 1.35 1.38 1.33 1.32 1.32 1.32 1.32 1.22 1.07 0.94 0.87 0.84 0.82 0.82 0.84 0.81 0.81 0.75 0.72 0.73 0.82 0.82 0.82 0.81 0.75 0.65
1.02 1.11 1.05 1.03 1.02 1.03 0.97 0.98 1.01 1.01 1.12 1.19 1.26 1.24 1.27 1.26 1.26 1.25 1.26 1.29 1.29 1.32 1.33 1.31 1.20 1.09 1.02 0.97 0.93 0.87 0.81 0.79 0.81 0.81 0.80 0.75 0.76 0.74 0.72 0.83 0.87 0.81 0.77 0.72
1.05 1.05 0.90 0.96 0.96 1.08 0.98 0.96 0.97 0.96 1.05 1.13 1.15 1.20 1.21 1.24 1.29 1.22 1.20 1.27 1.33 1.33 1.26 1.17 1.09 1.00 0.99 0.95 0.91 0.87 0.87 0.83 0.78 0.69 0.75 0.78 0.77 0.76 0.76 0.74 0.72 0.72 0.78 0.74
0.94 0.95 0.91 0.94 0.93 0.91 0.94 0.93 0.85 0.89 1.00 1.10 1.22 1.24 1.18 1.11 1.14 1.18 1.23 1.25 1.24 1.22 1.11 1.02 0.94 0.89 0.90 0.90 0.84 0.84 0.84 0.83 0.77 0.67 0.72 0.76 0.73 0.65 0.68 0.74 0.74 0.70 0.73 0.70
0.89 0.87 0.83 0.75 0.71 0.74 0.75 0.78 0.73 0.73 0.89 0.99 1.00 1.13 1.16 1.11 1.08 1.11 1.15 1.16 1.09 1.01 0.91 0.85 0.83 0.83 0.80 0.79 0.80 0.81 0.79 0.81 0.73 0.70 0.67 0.65 0.65 0.64 0.66 0.69 0.66 0.65 0.66 0.62
0.57 0.54 0.60 0.57 0.60 0.63 0.68 0.77 0.79 0.77 0.81 0.95 1.00 1.06 1.07 1.09 1.19 1.13 1.08 1.09 1.04 0.91 0.88 0.85 0.79 0.81 0.79 0.77 0.74 0.73 0.74 0.72 0.69 0.66 0.63 0.61 0.60 0.57 0.61 0.61 0.59 0.62 0.62 0.62
0.69 0.67 0.67 0.65 0.62 0.62 0.68 0.76 0.77 0.80 0.80 0.96 1.05 1.05 1.03 1.03 1.08 1.07 1.05 1.04 0.98 0.94 0.99 0.94 0.88 0.84 0.78 0.73 0.74 0.73 0.72 0.70 0.68 0.67 0.68 0.62 0.58 0.58 0.60 0.59 0.59 0.59 0.61 0.62
0.74 0.67 0.67 0.66 0.68 0.69 0.72 0.77 0.83 0.91 0.91 0.98 1.04 1.09 1.06 1.22 1.03 1.06 1.14 1.07 1.03 1.00 1.02 0.98 0.92 0.91 0.84 0.81 0.73 0.73 0.72 0.70 0.72 0.72 0.73 0.72 0.67 0.64 0.61 0.62 0.61 0.59 0.58 0.56
0.79 0.80 0.79 0.77 0.75 0.75 0.75 0.81 0.84 0.93 1.04 1.06 1.08 1.10 1.03 1.17 1.25 1.15 1.04 1.03 1.03 1.06 1.10 1.09 1.06 0.98 0.92 0.93 0.89 0.81 0.79 0.80 0.79 0.79 0.79 0.76 0.74 0.71 0.69 0.68 0.66 0.62 0.59 0.56
0.87 0.87 0.86 0.84 0.80 0.79 0.82 0.85 0.87 0.88 1.00 1.12 1.13 1.14 1.11 1.23 1.22 1.27 1.06 1.00 1.10 1.16 1.12 1.15 1.12 1.05 1.01 1.02 1.01 0.93 0.89 0.88 0.89 0.78 0.76 0.75 0.73 0.69 0.68 0.65 0.61 0.62 0.62 0.60
0.98 0.96 0.91 0.89 0.88 0.83 0.85 0.88 0.89 0.91 0.95 0.99 1.08 1.14 1.11 1.11 1.15 1.13 1.18 1.11 1.18 1.20 1.24 1.26 1.22 1.15 1.09 1.09 1.08 1.04 0.98 0.92 0.85 0.78 0.76 0.74 0.72 0.69 0.68 0.64 0.62 0.65 0.65 0.64
0.92 0.92 0.97 0.91 0.88 0.87 0.88 0.87 0.87 0.88 0.87 0.92 0.98 1.05 1.11 1.17 1.20 1.10 1.06 1.22 1.19 1.21 1.24 1.27 1.28 1.24 1.19 1.13 1.13 1.09 1.02 0.96 0.90 0.87 0.80 0.77 0.72 0.70 0.65 0.66 0.70 0.70 0.70 0.68
0.93 0.93 0.91 0.90 0.89 0.85 0.83 0.90 0.94 0.92 0.90 0.92 0.98 1.05 1.07 1.10 1.18 1.27 1.29 1.27 1.24 1.25 1.25 1.25 1.29 1.26 1.21 1.17 1.14 1.03 0.95 0.90 0.89 0.86 0.73 0.73 0.70 0.68 0.70 0.70 0.68 0.69 0.70 0.67
0.88 0.88 0.89 0.90 0.86 0.85 0.90 0.93 0.95 0.94 0.94 0.95 0.97 1.02 1.08 1.16 1.12 1.16 1.21 1.23 1.22 1.24 1.26 1.25 1.26 1.27 1.21 1.09 0.96 0.88 0.81 0.79 0.84 0.85 0.79 0.75 0.72 0.71 0.70 0.70 0.71 0.72 0.74 0.71
0.86 0.87 0.89 0.90 0.90 0.93 0.97 0.96 0.89 0.90 0.90 0.89 0.97 1.04 1.06 1.07 1.08 1.09 1.13 1.14 1.14 1.14 1.16 1.16 1.11 1.08 0.97 0.85 0.80 0.73 0.71 0.71 0.74 0.75 0.72 0.74 0.77 0.78 0.80 0.76 0.75 0.73 0.73 0.73
0.90 0.90 0.86 0.90 0.95 0.99 0.95 0.92 0.85 0.83 0.87 0.84 0.79 0.86 0.91 0.95 0.97 0.98 0.99 0.95 0.92 0.90 0.89 0.86 0.84 0.82 0.80 0.76 0.75 0.70 0.74 0.76 0.78 0.81 0.81 0.81 0.82 0.78 0.78 0.76 0.74 0.74 0.75 0.74

GFSNGP_prec_pwat_237.txt.gz
Precipitable_Water
0.27 0.31 0.33 0.33 0.36 0.45 0.43 0.46 0.40 0.45 0.49 0.56 0.63 0.71 0.86 1.01 1.08 1.14 1.21 1.23 1.14 1.20 1.33 1.49 1.50 1.37 1.51 1.61 1.66 1.59 1.40 1.20 1.27 1.34 1.34 1.27 1.23 1.20 1.17 1.12 1.08 1.04 0.98 0.98
0.27 0.32 0.36 0.33 0.38 0.41 0.49 0.50 0.52 0.50 0.52 0.72 0.81 0.93 0.91 1.02 1.07 1.09 1.23 1.29 1.30 1.33 1.46 1.62 1.71 1.53 1.47 1.56 1.61 1.58 1.40 1.27 1.35 1.36 1.33 1.26 1.21 1.16 1.13 1.09 1.04 1.00 0.94 0.95
0.24 0.32 0.35 0.28 0.35 0.40 0.48 0.57 0.57 0.48 0.59 0.73 0.76 0.85 0.90 0.97 1.06 1.06 1.16 1.32 1.38 1.46 1.57 1.69 1.75 1.56 1.58 1.51 1.60 1.53 1.40 1.38 1.36 1.34 1.27 1.27 1.20 1.14 1.07 1.00 0.96 0.92 0.94 0.95
0.27 0.33 0.24 0.36 0.52 0.52 0.55 0.64 0.70 0.70 0.72 0.76 0.80 0.93 0.99 1.03 1.02 1.08 1.16 1.31 1.46 1.58 1.71 1.87 1.81 1.81 1.79 1.80 1.68 1.54 1.43 1.35 1.37 1.36 1.28 1.28 1.20 1.13 1.08 1.01 0.90 0.84 0.82 0.84
0.31 0.29 0.39 0.47 0.50 0.48 0.50 0.59 0.76 0.73 0.82 0.86 0.88 0.90 0.87 1.01 1.07 1.09 1.20 1.35 1.53 1.66 1.73 1.90 1.83 1.56 1.70 1.82 1.72 1.58 1.38 1.33 1.37 1.38 1.30 1.21 1.06 1.03 1.01 0.91 0.86 0.85 0.87 0.85
0.42 0.31 0.28 0.44 0.63 0.73 0.69 0.43 0.74 0.80 0.79 0.82 0.87 0.65 0.77 0.99 1.08 1.18 1.33 1.40 1.44 1.59 1.67 1.67 1.75 1.71 1.75 1.69 1.63 1.50 1.42 1.37 1.38 1.34 1.23 1.09 1.08 1.01 0.92 0.87 0.88 0.91 0.90 0.95
0.49 0.42 0.51 0.70 0.76 0.83 0.47 0.45 0.76 0.82 0.89 0.90 0.84 0.88 0.99 1.14 1.19 1.24 1.35 1.41 1.47 1.54 1.58 1.58 1.62 1.68 1.68 1.63 1.49 1.53 1.51 1.48 1.42 1.30 1.17 1.13 1.06 0.97 0.90 0.90 0.91 0.89 0.88 0.92
0.59 0.51 0.45 0.85 0.76 0.59 0.70 0.84 0.87 0.90 0.98 1.01 1.03 1.10 1.15 1.18 1.25 1.31 1.34 1.43 1.45 1.39 1.34 1.44 1.57 1.71 1.68 1.65 1.71 1.68 1.62 1.53 1.39 1.27 1.19 1.06 0.92 0.88 0.85 0.85 0.83 0.85 0.87 0.89
0.69 0.65 0.91 0.96 0.87 0.96 0.99 0.89 0.89 0.94 1.04 1.03 1.02 1.06 1.11 1.20 1.32 1.40 1.42 1.34 1.45 1.37 1.40 1.51 1.63 1.71 1.64 1.70 1.74 1.67 1.54 1.38 1.25 1.14 1.01 0.94 0.86 0.82 0.80 0.79 0.76 0.76 0.77 0.79
0.73 0.83 0.92 0.99 0.99 1.03 1.05 1.02 1.03 1.03 1.02 1.07 1.01 1.10 1.10 1.25 1.35 1.38 1.39 1.41 1.42 1.36 1.39 1.45 1.57 1.64 1.66 1.68 1.67 1.49 1.26 1.08 0.99 0.92 0.87 0.86 0.84 0.82 0.79 0.75 0.75 0.73 0.67 0.61
0.78 0.93 0.99 1.03 1.04 1.03 1.06 1.08 1.05 1.07 1.02 0.97 1.03 1.11 1.20 1.17 1.22 1.32 1.35 1.34 1.38 1.40 1.42 1.43 1.54 1.57 1.61 1.55 1.41 1.16 0.98 0.93 0.90 0.89 0.87 0.81 0.81 0.81 0.78 0.79 0.77 0.72 0.68 0.61
0.71 0.93 0.95 0.99 1.13 1.14 1.07 1.05 1.06 1.02 1.05 1.10 1.18 1.18 1.23 1.22 1.29 1.32 1.33 1.36 1.35 1.39 1.43 1.48 1.53 1.50 1.47 1.41 1.17 0.97 0.88 0.86 0.87 0.86 0.83 0.81 0.78 0.75 0.83 0.84 0.84 0.82 0.77 0.72
0.93 1.11 1.06 1.13 1.19 1.19 1.11 1.09 1.13 1.08 1.07 1.04 1.11 1.19 1.23 1.20 1.20 1.21 1.24 1.27 1.31 1.37 1.46 1.48 1.47 1.44 1.32 1.12 1.01 0.94 0.85 0.85 0.85 0.85 0.81 0.76 0.76 0.73 0.70 0.80 0.84 0.81 0.77 0.74
1.06 1.06 1.00 1.09 1.03 1.16 1.15 1.15 1.14 1.12 1.14 1.17 1.21 1.23 1.16 1.22 1.27 1.27 1.25 1.31 1.38 1.40 1.40 1.41 1.38 1.27 1.18 1.07 0.99 0.93 0.87 0.84 0.78 0.74 0.75 0.78 0.79 0.78 0.77 0.71 0.71 0.74 0.78 0.71
1.01 1.07 1.06 1.08 1.05 1.01 1.00 0.99 0.98 0.95 0.99 1.05 1.04 1.10 1.21 1.22 1.23 1.25 1.32 1.35 1.34 1.33 1.33 1.33 1.27 1.17 1.11 1.03 0.93 0.88 0.85 0.84 0.81 0.71 0.71 0.73 0.79 0.72 0.67 0.69 0.74 0.73 0.71 0.69
0.92 0.90 0.89 0.84 0.81 0.80 0.79 0.75 0.72 0.79 0.86 0.93 0.97 0.98 1.06 1.15 1.26 1.28 1.25 1.24 1.14 1.12 1.21 1.23 1.11 1.00 0.94 0.94 0.88 0.86 0.85 0.84 0.74 0.71 0.70 0.67 0.65 0.63 0.66 0.71 0.72 0.67 0.66 0.66
0.74 0.67 0.65 0.58 0.57 0.60 0.60 0.66 0.67 0.68 0.75 0.82 0.89 1.07 1.07 1.09 1.11 1.18 1.21 1.26 1.26 1.23 1.19 1.12 0.95 0.91 0.86 0.82 0.81 0.82 0.82 0.83 0.76 0.71 0.67 0.65 0.61 0.60 0.62 0.65 0.63 0.62 0.65 0.65
0.71 0.67 0.64 0.61 0.58 0.59 0.62 0.68 0.68 0.71 0.74 0.78 0.90 0.93 1.04 1.06 1.05 1.06 1.14 1.25 1.23 1.11 1.06 0.99 0.93 0.88 0.85 0.82 0.84 0.81 0.82 0.77 0.72 0.69 0.68 0.65 0.62 0.60 0.63 0.61 0.62 0.64 0.65 0.65
0.70 0.64 0.65 0.64 0.66 0.65 0.66 0.67 0.69 0.74 0.85 0.87 0.85 0.88 1.02 1.08 1.12 1.16 1.20 1.18 1.08 0.99 0.99 1.01 0.97 0.91 0.84 0.83 0.83 0.82 0.81 0.76 0.72 0.70 0.71 0.72 0.71 0.71 0.67 0.67 0.68 0.71 0.68 0.65
0.79 0.78 0.78 0.76 0.75 0.72 0.71 0.76 0.79 0.80 0.92 0.94 0.96 0.99 1.03 1.09 1.18 1.23 1.17 1.16 1.11 1.06 1.14 1.03 0.97 0.91 0.92 0.91 0.88 0.85 0.81 0.77 0.74 0.75 0.78 0.77 0.76 0.75 0.71 0.68 0.66 0.65 0.62 0.64
0.82 0.84 0.82 0.83 0.80 0.79 0.79 0.80 0.80 0.80 0.88 0.97 0.97 1.00 1.06 1.09 1.26 1.17 1.09 1.13 1.27 1.30 1.19 1.07 1.08 1.05 1.01 1.00 1.00 0.92 0.87 0.83 0.85 0.87 0.82 0.78 0.77 0.77 0.74 0.71 0.67 0.63 0.63 0.64
0.92 0.89 0.89 0.88 0.86 0.84 0.82 0.82 0.83 0.83 0.85 0.89 0.95 1.04 1.06 1.12 1.17 1.15 1.19 1.25 1.29 1.23 1.15 1.13 1.13 1.13 1.09 1.07 1.07 1.06 1.01 0.96 0.92 0.92 0.86 0.81 0.76 0.72 0.71 0.69 0.68 0.66 0.66 0.67
0.93 0.89 0.88 0.85 0.84 0.83 0.85 0.84 0.85 0.84 0.82 0.85 0.88 0.93 0.98 1.07 1.13 1.10 1.06 1.24 1.26 1.26 1.23 1.22 1.24 1.24 1.25 1.20 1.14 1.13 1.12 1.07 1.05 0.98 0.86 0.81 0.80 0.76 0.71 0.69 0.67 0.66 0.68 0.70
0.91 0.92 0.90 0.94 0.92 0.84 0.81 0.86 0.91 0.91 0.91 0.91 0.91 0.95 0.95 0.96 1.04 1.19 1.24 1.27 1.31 1.28 1.26 1.31 1.28 1.28 1.31 1.27 1.21 1.16 1.18 1.09 1.03 0.97 0.93 0.93 0.87 0.75 0.70 0.68 0.69 0.70 0.69 0.71
0.90 0.89 0.90 0.88 0.87 0.84 0.86 0.90 0.92 0.92 0.90 0.90 0.92 0.95 0.98 1.02 1.02 1.09 1.15 1.19 1.22 1.23 1.25 1.22 1.20 1.24 1.26 1.25 1.22 1.17 1.08 0.98 0.92 0.84 0.80 0.80 0.73 0.69 0.72 0.71 0.74 0.75 0.75 0.74
0.88 0.86 0.89 0.91 0.90 0.93 0.94 0.95 0.87 0.85 0.85 0.86 0.95 1.00 0.98 0.97 0.96 0.97 1.03 1.06 1.09 1.11 1.13 1.23 1.24 1.23 1.17 1.19 1.15 1.06 0.91 0.80 0.74 0.74 0.76 0.75 0.75 0.76 0.78 0.79 0.81 0.79 0.77 0.76
0.90 0.90 0.89 0.87 0.95 0.97 1.02 0.96 0.86 0.79 0.82 0.79 0.77 0.85 0.87 0.88 0.89 0.89 0.87 0.85 0.88 0.89 0.93 0.94 0.97 1.04 1.05 1.01 0.91 0.85 0.81 0.75 0.73 0.73 0.76 0.76 0.78 0.79 0.81 0.90 0.79 0.80 0.79 0.77

GFSNGP_prec_pwat_240.txt.gz
Precipitable_Water
0.26 0.30 0.33 0.33 0.32 0.35 0.37 0.39 0.34 0.38 0.39 0.46 0.64 0.70 0.79 0.95 1.10 1.15 1.17 1.15 1.08 1.06 1.09 1.24 1.32 1.46 1.62 1.73 1.75 1.71 1.56 1.44 1.25 1.31 1.38 1.37 1.31 1.29 1.28 1.24 1.17 1.11 1.04 1.00
0.23 0.27 0.30 0.31 0.36 0.37 0.39 0.42 0.45 0.47 0.45 0.59 0.72 0.81 0.86 0.93 1.03 1.06 1.13 1.20 1.27 1.24 1.24 1.33 1.46 1.59 1.64 1.71 1.82 1.81 1.67 1.42 1.27 1.29 1.34 1.32 1.31 1.26 1.20 1.16 1.13 1.08 1.00 0.98
0.23 0.28 0.31 0.28 0.33 0.39 0.39 0.41 0.41 0.39 0.53 0.69 0.69 0.77 0.83 0.91 0.98 1.02 1.10 1.20 1.26 1.34 1.39 1.44 1.47 1.61 1.74 1.72 1.83 1.77 1.66 1.61 1.50 1.30 1.30 1.28 1.26 1.23 1.16 1.11 1.10 1.02 0.95 0.94
0.26 0.30 0.21 0.30 0.52 0.51 0.44 0.45 0.50 0.57 0.65 0.73 0.78 0.87 0.93 1.00 0.99 1.06 1.18 1.30 1.33 1.39 1.49 1.60 1.67 1.70 1.68 1.74 1.85 1.76 1.70 1.61 1.56 1.35 1.32 1.33 1.28 1.22 1.17 1.11 1.04 0.95 0.86 0.85
0.26 0.24 0.31 0.37 0.46 0.47 0.44 0.37 0.57 0.62 0.70 0.81 0.87 0.92 0.90 1.01 1.04 1.05 1.15 1.27 1.35 1.47 1.55 1.64 1.77 1.81 1.60 1.63 1.68 1.71 1.66 1.60 1.55 1.38 1.35 1.34 1.24 1.12 1.10 1.05 1.00 0.92 0.91 0.88
0.37 0.27 0.23 0.34 0.55 0.69 0.65 0.36 0.65 0.68 0.71 0.78 0.81 0.66 0.76 0.96 1.07 1.13 1.24 1.31 1.36 1.46 1.55 1.64 1.76 1.82 1.72 1.61 1.58 1.65 1.71 1.63 1.54 1.41 1.36 1.29 1.19 1.14 1.11 1.07 0.99 0.95 0.93 0.94
0.45 0.38 0.40 0.54 0.67 0.75 0.40 0.37 0.70 0.79 0.79 0.81 0.74 0.83 0.96 1.05 1.11 1.25 1.29 1.34 1.47 1.53 1.52 1.61 1.70 1.67 1.55 1.62 1.60 1.74 1.77 1.66 1.49 1.42 1.36 1.28 1.16 1.11 1.07 0.99 0.93 0.93 0.89 0.90
0.56 0.49 0.38 0.76 0.72 0.55 0.65 0.75 0.80 0.84 0.88 0.88 0.89 0.99 1.03 1.08 1.17 1.27 1.32 1.39 1.50 1.50 1.53 1.61 1.64 1.57 1.54 1.55 1.71 1.75 1.68 1.56 1.49 1.47 1.41 1.28 1.16 1.10 1.02 0.94 0.88 0.87 0.89 0.88
0.60 0.60 0.82 0.90 0.86 0.93 0.93 0.85 0.89 0.87 0.95 0.98 0.96 1.02 1.08 1.04 1.13 1.22 1.32 1.45 1.51 1.52 1.54 1.55 1.59 1.62 1.57 1.71 1.76 1.70 1.60 1.56 1.57 1.50 1.35 1.21 1.07 0.95 0.89 0.86 0.81 0.80 0.78 0.71
0.69 0.80 0.86 0.95 1.01 1.01 1.01 0.97 1.01 1.05 1.02 1.03 1.01 1.08 1.06 1.15 1.24 1.27 1.33 1.41 1.49 1.49 1.47 1.45 1.56 1.62 1.68 1.75 1.74 1.71 1.63 1.57 1.48 1.28 1.09 0.99 0.92 0.90 0.84 0.81 0.77 0.70 0.63 0.56
0.74 0.85 0.93 0.97 1.03 1.04 1.07 1.11 1.10 1.13 1.11 1.02 1.00 1.04 1.15 1.19 1.20 1.26 1.31 1.36 1.43 1.45 1.43 1.45 1.57 1.58 1.62 1.67 1.67 1.56 1.53 1.40 1.13 0.99 0.94 0.90 0.88 0.88 0.87 0.87 0.83 0.72 0.67 0.64
0.69 0.92 0.92 1.01 1.13 1.16 1.10 1.09 1.12 1.09 1.07 1.12 1.11 1.07 1.20 1.20 1.25 1.24 1.22 1.28 1.32 1.39 1.43 1.47 1.54 1.56 1.55 1.57 1.55 1.44 1.27 1.05 0.97 0.94 0.94 0.89 0.87 0.89 0.93 0.90 0.87 0.81 0.76 0.71
0.96 1.08 1.06 1.13 1.19 1.23 1.18 1.17 1.20 1.16 1.17 1.13 1.18 1.16 1.22 1.21 1.22 1.25 1.25 1.30 1.33 1.36 1.43 1.45 1.46 1.46 1.52 1.54 1.47 1.25 1.01 0.97 0.97 0.96 0.90 0.87 0.86 0.83 0.76 0.83 0.85 0.82 0.77 0.73
1.09 1.07 1.00 1.14 1.11 1.23 1.21 1.21 1.21 1.19 1.20 1.19 1.23 1.23 1.16 1.11 1.15 1.22 1.16 1.22 1.30 1.32 1.35 1.39 1.40 1.41 1.47 1.42 1.20 1.05 1.02 1.00 0.97 0.96 0.92 0.88 0.84 0.80 0.76 0.73 0.71 0.74 0.77 0.73
1.00 1.07 1.09 1.13 1.13 1.12 1.12 1.05 0.98 0.97 1.01 1.08 1.20 1.18 1.08 1.00 1.05 1.13 1.23 1.26 1.33 1.35 1.36 1.37 1.36 1.35 1.34 1.22 1.09 1.02 0.98 0.97 0.92 0.83 0.80 0.84 0.83 0.83 0.79 0.75 0.72 0.74 0.72 0.70
0.98 0.97 0.94 0.88 0.86 0.89 0.92 0.87 0.78 0.76 0.78 0.80 0.88 0.95 1.00 0.98 0.99 1.18 1.29 1.31 1.24 1.20 1.30 1.32 1.29 1.28 1.26 1.12 1.02 0.99 0.96 0.93 0.90 0.79 0.76 0.75 0.77 0.75 0.69 0.69 0.71 0.73 0.67 0.66
0.77 0.66 0.69 0.67 0.68 0.69 0.69 0.68 0.67 0.65 0.64 0.64 0.68 0.73 0.82 0.91 0.98 1.05 1.16 1.30 1.32 1.31 1.32 1.27 1.24 1.27 1.15 1.02 0.94 0.88 0.92 0.91 0.79 0.76 0.72 0.70 0.70 0.68 0.68 0.68 0.68 0.65 0.62 0.67
0.81 0.77 0.74 0.69 0.60 0.56 0.58 0.62 0.64 0.65 0.66 0.73 0.74 0.73 0.75 0.79 0.87 0.96 1.10 1.25 1.27 1.26 1.32 1.31 1.27 1.16 1.02 0.95 0.93 0.90 0.91 0.87 0.82 0.74 0.74 0.73 0.70 0.68 0.67 0.66 0.65 0.63 0.66 0.69
0.74 0.72 0.70 0.66 0.65 0.64 0.64 0.65 0.68 0.71 0.75 0.79 0.77 0.77 0.78 0.85 0.95 1.06 1.15 1.20 1.21 1.20 1.27 1.29 1.17 1.01 0.95 0.90 0.88 0.90 0.88 0.85 0.79 0.76 0.76 0.77 0.77 0.72 0.68 0.67 0.69 0.70 0.69 0.69
0.80 0.81 0.79 0.76 0.75 0.71 0.70 0.75 0.77 0.77 0.82 0.86 0.87 0.89 0.91 0.97 1.02 1.06 1.12 1.11 1.18 1.24 1.27 1.16 1.07 0.98 0.91 0.86 0.88 0.89 0.89 0.83 0.80 0.79 0.79 0.77 0.76 0.75 0.74 0.72 0.71 0.70 0.68 0.67
0.86 0.86 0.86 0.85 0.83 0.84 0.80 0.80 0.79 0.77 0.82 0.87 0.86 0.91 0.96 1.03 1.06 1.12 1.07 1.09 1.26 1.25 1.18 1.11 1.13 1.04 0.99 0.98 0.98 0.92 0.86 0.82 0.82 0.79 0.82 0.83 0.81 0.79 0.79 0.76 0.75 0.71 0.70 0.67
0.91 0.89 0.86 0.87 0.86 0.85 0.86 0.83 0.82 0.80 0.80 0.83 0.88 0.93 0.96 1.00 1.06 1.11 1.13 1.24 1.36 1.21 1.17 1.22 1.21 1.19 1.10 1.08 1.03 0.94 0.89 0.88 0.88 0.89 0.87 0.88 0.86 0.82 0.79 0.78 0.72 0.70 0.72 0.70
0.95 0.91 0.88 0.86 0.84 0.84 0.86 0.86 0.87 0.87 0.83 0.83 0.84 0.86 0.88 0.97 1.06 1.05 1.08 1.22 1.29 1.31 1.28 1.26 1.26 1.23 1.21 1.15 1.06 1.08 1.07 1.06 1.04 1.04 1.01 1.01 0.92 0.86 0.82 0.81 0.80 0.73 0.70 0.70
0.91 0.91 0.89 0.90 0.90 0.86 0.80 0.86 0.89 0.88 0.88 0.88 0.87 0.88 0.88 0.88 0.95 1.08 1.15 1.22 1.23 1.24 1.28 1.30 1.29 1.28 1.28 1.28 1.23 1.23 1.20 1.16 1.18 1.19 1.14 1.07 0.95 0.89 0.87 0.89 0.79 0.72 0.71 0.70
0.87 0.87 0.86 0.85 0.81 0.82 0.85 0.88 0.87 0.85 0.84 0.85 0.89 0.92 0.93 0.94 0.92 0.99 1.07 1.10 1.11 1.13 1.17 1.24 1.27 1.28 1.29 1.25 1.25 1.27 1.20 1.18 1.19 1.09 1.04 0.99 0.92 0.86 0.84 0.79 0.70 0.70 0.74 0.76
0.81 0.81 0.83 0.86 0.85 0.86 0.89 0.90 0.82 0.76 0.77 0.81 0.89 0.91 0.89 0.89 0.89 0.91 0.94 0.94 0.92 0.95 0.97 1.04 1.16 1.21 1.20 1.23 1.20 1.21 1.19 1.13 1.06 0.97 0.84 0.77 0.81 0.79 0.76 0.75 0.79 0.80 0.83 0.83
0.88 0.87 0.84 0.83 0.87 0.92 0.93 0.91 0.82 0.79 0.83 0.79 0.75 0.82 0.83 0.84 0.84 0.83 0.83 0.83 0.84 0.85 0.87 0.90 0.92 0.99 1.01 1.03 1.08 1.05 1.04 1.04 0.97 0.85 0.77 0.77 0.80 0.78 0.77 0.78 0.81 0.84 0.79 0.80

GFSNGP_prec_pwat_246.txt.gz
Precipitable_Water
0.24 0.26 0.29 0.33 0.34 0.36 0.36 0.38 0.35 0.37 0.36 0.43 0.53 0.57 0.65 0.78 0.92 1.00 1.09 1.22 1.18 1.09 1.18 1.30 1.36 1.46 1.53 1.48 1.51 1.51 1.53 1.54 1.53 1.54 1.43 1.44 1.43 1.40 1.39 1.38 1.35 1.33 1.29 1.26
0.26 0.26 0.26 0.26 0.29 0.36 0.39 0.38 0.37 0.36 0.34 0.47 0.60 0.66 0.67 0.80 0.92 1.01 1.07 1.21 1.24 1.21 1.24 1.36 1.42 1.47 1.58 1.65 1.71 1.73 1.69 1.57 1.60 1.48 1.44 1.42 1.41 1.39 1.34 1.33 1.30 1.27 1.24 1.19
0.24 0.27 0.26 0.22 0.25 0.28 0.31 0.37 0.37 0.33 0.40 0.56 0.51 0.61 0.69 0.78 0.90 1.01 1.15 1.23 1.28 1.31 1.38 1.42 1.45 1.51 1.53 1.61 1.79 1.83 1.79 1.71 1.68 1.62 1.49 1.36 1.36 1.33 1.31 1.27 1.28 1.22 1.17 1.14
0.29 0.34 0.22 0.27 0.34 0.31 0.30 0.35 0.40 0.42 0.44 0.49 0.55 0.68 0.78 0.86 0.91 1.03 1.16 1.28 1.34 1.38 1.47 1.54 1.57 1.58 1.65 1.70 1.73 1.79 1.75 1.73 1.70 1.70 1.62 1.53 1.41 1.37 1.35 1.29 1.22 1.17 1.12 1.11
0.32 0.29 0.30 0.37 0.39 0.34 0.32 0.33 0.41 0.43 0.49 0.58 0.61 0.69 0.75 0.87 0.99 1.07 1.17 1.33 1.43 1.51 1.60 1.63 1.64 1.69 1.68 1.71 1.77 1.83 1.74 1.73 1.80 1.79 1.73 1.69 1.57 1.46 1.35 1.26 1.24 1.21 1.16 1.09
0.45 0.32 0.28 0.37 0.53 0.57 0.55 0.35 0.57 0.53 0.52 0.59 0.63 0.53 0.81 0.91 1.01 1.12 1.24 1.37 1.43 1.53 1.62 1.63 1.68 1.77 1.72 1.71 1.77 1.74 1.76 1.73 1.70 1.72 1.76 1.68 1.69 1.54 1.45 1.35 1.29 1.24 1.13 1.08
0.47 0.43 0.46 0.57 0.60 0.65 0.33 0.42 0.72 0.69 0.70 0.69 0.67 0.80 0.93 0.92 0.98 1.10 1.25 1.36 1.43 1.46 1.47 1.56 1.65 1.66 1.61 1.63 1.61 1.72 1.80 1.79 1.79 1.81 1.73 1.68 1.76 1.62 1.50 1.41 1.33 1.20 1.09 1.05
0.46 0.46 0.46 0.87 0.72 0.50 0.69 0.78 0.76 0.80 0.85 0.83 0.87 0.87 0.89 0.98 1.09 1.15 1.20 1.31 1.38 1.38 1.42 1.50 1.54 1.54 1.53 1.59 1.72 1.71 1.67 1.65 1.75 1.86 1.83 1.75 1.70 1.59 1.48 1.39 1.27 1.14 1.03 0.98
0.62 0.61 0.85 0.95 0.92 0.95 0.89 0.85 0.85 0.87 0.92 0.98 0.95 0.94 0.99 1.07 1.12 1.17 1.27 1.33 1.44 1.44 1.47 1.56 1.61 1.62 1.54 1.63 1.65 1.61 1.56 1.62 1.73 1.80 1.78 1.74 1.65 1.50 1.40 1.36 1.24 1.08 1.00 0.94
0.64 0.77 0.82 0.91 1.00 0.99 0.98 0.97 1.02 1.05 1.04 1.05 1.03 1.06 1.11 1.16 1.17 1.23 1.29 1.34 1.42 1.45 1.44 1.47 1.58 1.62 1.67 1.69 1.65 1.59 1.55 1.59 1.69 1.70 1.65 1.62 1.60 1.51 1.39 1.23 1.10 1.03 0.90 0.81
0.73 0.86 0.87 0.95 1.01 1.05 1.06 1.10 1.11 1.14 1.17 1.15 1.13 1.14 1.18 1.20 1.26 1.32 1.34 1.35 1.43 1.43 1.43 1.47 1.57 1.58 1.67 1.68 1.69 1.63 1.60 1.65 1.69 1.69 1.64 1.59 1.51 1.42 1.24 1.16 1.08 0.96 0.88 0.84
0.78 0.93 0.95 0.96 1.08 1.13 1.08 1.08 1.12 1.11 1.16 1.27 1.27 1.24 1.27 1.28 1.35 1.36 1.40 1.44 1.45 1.48 1.48 1.48 1.55 1.59 1.63 1.66 1.65 1.60 1.57 1.62 1.63 1.60 1.54 1.49 1.44 1.25 1.17 1.10 1.01 0.95 0.90 0.88
1.00 1.10 1.11 1.11 1.14 1.17 1.12 1.11 1.13 1.11 1.16 1.19 1.34 1.45 1.45 1.41 1.41 1.41 1.40 1.42 1.43 1.43 1.44 1.45 1.44 1.44 1.53 1.59 1.64 1.60 1.56 1.58 1.58 1.52 1.44 1.33 1.17 1.06 0.94 1.00 1.00 0.96 0.94 0.90
1.18 1.16 1.06 1.12 1.09 1.19 1.17 1.15 1.16 1.16 1.20 1.25 1.27 1.33 1.49 1.47 1.45 1.39 1.34 1.38 1.42 1.42 1.39 1.38 1.40 1.44 1.58 1.63 1.63 1.63 1.61 1.55 1.48 1.38 1.28 1.18 1.09 1.06 1.03 0.95 0.92 0.95 1.00 0.93
1.16 1.18 1.20 1.22 1.21 1.18 1.14 1.06 1.00 1.01 1.09 1.14 1.20 1.22 1.29 1.41 1.40 1.39 1.45 1.42 1.35 1.29 1.30 1.32 1.34 1.40 1.53 1.59 1.59 1.54 1.47 1.43 1.33 1.22 1.15 1.10 1.07 1.05 1.04 1.06 1.04 1.02 0.98 0.86
1.12 1.11 1.07 0.99 0.95 0.96 0.96 0.94 0.90 0.90 0.91 0.97 1.02 1.06 1.11 1.17 1.32 1.40 1.43 1.44 1.33 1.24 1.28 1.29 1.32 1.38 1.45 1.46 1.45 1.44 1.39 1.24 1.16 1.14 1.11 1.05 1.05 1.01 1.02 1.02 1.00 0.94 0.89 0.88
0.94 0.91 0.88 0.84 0.83 0.85 0.82 0.81 0.79 0.77 0.78 0.81 0.84 0.94 1.00 0.91 0.94 1.06 1.22 1.32 1.34 1.35 1.31 1.27 1.27 1.40 1.45 1.46 1.39 1.26 1.20 1.13 1.06 1.03 0.98 0.95 0.97 0.98 0.99 0.98 0.90 0.84 0.86 0.93
0.96 0.89 0.87 0.85 0.83 0.79 0.77 0.77 0.77 0.79 0.77 0.79 0.83 0.84 0.83 0.81 0.78 0.83 0.96 1.09 1.17 1.20 1.25 1.29 1.32 1.37 1.40 1.37 1.30 1.25 1.12 1.05 0.98 0.94 0.92 0.90 0.92 0.93 0.90 0.85 0.81 0.82 0.86 0.89
0.88 0.85 0.87 0.85 0.82 0.79 0.78 0.73 0.72 0.76 0.78 0.80 0.79 0.80 0.83 0.86 0.84 0.88 0.97 1.04 1.09 1.12 1.21 1.34 1.35 1.36 1.36 1.35 1.31 1.21 1.07 1.01 1.00 0.96 0.93 0.92 0.88 0.85 0.80 0.81 0.85 0.86 0.80 0.79
0.87 0.90 0.88 0.86 0.84 0.77 0.74 0.76 0.76 0.75 0.79 0.82 0.82 0.82 0.85 0.90 0.97 0.95 1.00 1.01 1.12 1.23 1.34 1.34 1.34 1.36 1.37 1.32 1.19 1.09 1.02 1.00 1.01 0.94 0.94 0.94 0.89 0.85 0.84 0.84 0.87 0.82 0.81 0.80
0.94 0.96 0.93 0.89 0.86 0.86 0.83 0.83 0.82 0.81 0.82 0.84 0.82 0.82 0.86 0.95 1.02 1.08 1.04 1.01 1.12 1.24 1.32 1.32 1.32 1.27 1.27 1.23 1.10 0.96 0.93 0.96 1.00 1.04 0.98 0.92 0.91 0.90 0.89 0.87 0.85 0.84 0.85 0.85
0.96 0.93 0.90 0.91 0.92 0.90 0.89 0.89 0.89 0.88 0.87 0.85 0.86 0.85 0.83 0.85 0.93 1.02 1.13 1.14 1.23 1.24 1.22 1.26 1.25 1.23 1.11 0.99 0.92 0.91 0.92 0.95 0.97 1.00 0.99 0.97 0.94 0.92 0.90 0.92 0.92 0.91 0.89 0.87
0.96 0.96 0.95 0.95 0.95 0.94 0.94 0.93 0.91 0.88 0.86 0.85 0.84 0.85 0.85 0.85 0.89 0.90 0.92 1.14 1.23 1.25 1.24 1.21 1.20 1.15 1.10 1.05 1.06 1.02 1.02 1.01 1.01 1.02 1.01 0.97 0.94 0.93 0.94 0.96 0.98 0.97 0.94 0.93
1.05 1.01 1.01 1.01 0.98 0.93 0.89 0.92 0.93 0.89 0.87 0.87 0.88 0.89 0.87 0.89 0.91 0.98 1.02 1.08 1.15 1.19 1.21 1.28 1.25 1.22 1.18 1.19 1.18 1.16 1.17 1.14 1.09 1.06 1.03 1.03 1.07 1.07 1.09 1.08 1.04 1.02 1.02 0.98
0.99 0.99 0.96 0.92 0.91 0.94 0.93 0.94 0.94 0.88 0.90 0.91 0.89 0.86 0.88 0.90 0.89 0.95 0.99 0.94 0.92 0.98 1.00 1.02 1.07 1.12 1.18 1.19 1.16 1.15 1.14 1.13 1.14 1.14 1.14 1.11 1.10 1.06 1.08 1.08 1.10 1.10 1.11 1.06
0.94 0.92 0.92 0.92 0.95 0.94 0.92 0.94 0.81 0.82 0.82 0.80 0.82 0.84 0.83 0.85 0.82 0.84 0.85 0.84 0.86 0.82 0.86 0.87 0.88 0.89 0.90 0.94 0.97 1.03 1.09 1.13 1.16 1.13 1.10 1.10 1.10 1.11 1.08 1.07 1.09 1.06 1.03 1.04
0.96 0.93 0.94 0.91 0.90 0.92 0.96 0.94 0.83 0.84 0.84 0.82 0.80 0.84 0.83 0.82 0.79 0.79 0.76 0.77 0.76 0.77 0.77 0.78 0.82 0.82 0.85 0.87 0.88 0.91 0.95 0.98 0.95 0.92 0.97 0.97 0.98 0.98 0.98 1.01 1.04 1.06 1.03 0.94

GFSNGP_prec_pwat_252.txt.gz
Precipitable_Water
0.23 0.27 0.29 0.32 0.31 0.33 0.32 0.36 0.33 0.37 0.37 0.52 0.59 0.69 0.84 0.73 0.83 0.91 0.97 1.12 1.22 1.25 1.25 1.30 1.34 1.43 1.49 1.48 1.65 1.63 1.66 1.89 1.60 1.56 1.60 1.51 1.45 1.44 1.43 1.36 1.42 1.44 1.40 1.38
0.22 0.25 0.25 0.24 0.32 0.34 0.34 0.34 0.32 0.32 0.31 0.46 0.68 0.76 0.77 0.79 0.74 0.79 0.99 1.13 1.24 1.27 1.29 1.30 1.32 1.40 1.50 1.54 1.67 1.69 2.00 1.56 1.48 1.68 1.55 1.51 1.50 1.51 1.46 1.43 1.40 1.38 1.38 1.34
0.23 0.28 0.26 0.24 0.26 0.26 0.28 0.34 0.38 0.35 0.38 0.42 0.49 0.56 0.68 0.74 0.72 0.80 0.97 1.12 1.24 1.27 1.35 1.43 1.46 1.54 1.61 1.74 1.76 1.70 1.69 1.73 1.75 1.68 1.62 1.56 1.54 1.54 1.48 1.42 1.38 1.33 1.35 1.38
0.26 0.31 0.23 0.30 0.37 0.34 0.29 0.29 0.32 0.35 0.38 0.48 0.46 0.59 0.70 0.75 0.71 0.84 0.98 1.09 1.28 1.34 1.42 1.55 1.65 1.63 1.72 1.78 1.73 1.61 1.62 1.71 1.77 1.63 1.58 1.54 1.56 1.50 1.50 1.49 1.43 1.34 1.31 1.36
0.27 0.27 0.29 0.32 0.38 0.35 0.33 0.33 0.36 0.32 0.34 0.41 0.45 0.71 0.77 0.83 0.81 0.89 1.04 1.14 1.34 1.44 1.50 1.62 1.70 1.74 1.76 1.75 1.77 1.62 1.74 1.74 1.73 1.73 1.64 1.61 1.55 1.59 1.59 1.61 1.52 1.46 1.45 1.36
0.40 0.32 0.29 0.42 0.63 0.63 0.51 0.34 0.69 0.48 0.50 0.37 0.54 0.59 0.96 1.08 0.94 1.02 1.15 1.25 1.33 1.49 1.52 1.62 1.74 1.85 1.79 1.75 1.78 1.65 1.72 1.81 1.95 1.99 1.84 1.65 1.73 1.73 1.69 1.65 1.67 1.66 1.59 1.48
0.58 0.54 0.47 0.71 0.71 0.70 0.46 0.78 0.98 0.95 0.86 0.93 0.88 0.96 1.21 1.06 0.95 1.16 1.25 1.26 1.36 1.43 1.53 1.66 1.77 1.83 1.81 1.85 1.81 1.85 1.87 1.93 1.89 1.87 1.82 1.79 1.82 1.84 1.74 1.70 1.71 1.68 1.60 1.51
0.66 0.63 0.52 0.95 0.73 0.55 0.89 1.05 1.01 1.10 1.03 0.99 1.04 1.03 1.00 0.94 0.91 1.02 1.12 1.31 1.38 1.43 1.62 1.77 1.82 1.83 1.83 1.86 1.90 1.88 1.85 1.79 1.78 1.83 1.86 1.87 1.80 1.73 1.72 1.71 1.71 1.66 1.57 1.47
0.66 0.59 1.12 1.05 1.00 1.06 1.10 0.94 0.98 0.98 1.01 0.99 0.98 0.95 0.99 1.00 1.05 1.12 1.20 1.25 1.34 1.48 1.56 1.64 1.72 1.77 1.69 1.73 1.79 1.72 1.72 1.74 1.76 1.78 1.74 1.72 1.66 1.63 1.61 1.66 1.66 1.67 1.65 1.58
0.86 0.83 1.04 1.07 1.03 1.02 0.88 0.79 0.85 1.01 1.10 1.03 1.10 1.13 1.10 1.16 1.17 1.21 1.28 1.30 1.42 1.44 1.45 1.45 1.56 1.61 1.64 1.64 1.68 1.70 1.68 1.69 1.70 1.65 1.62 1.57 1.58 1.61 1.59 1.59 1.60 1.51 1.40 1.45
0.77 0.67 0.69 1.16 1.34 1.14 1.05 1.04 1.04 1.14 1.17 1.17 1.16 1.18 1.22 1.22 1.27 1.34 1.37 1.39 1.46 1.51 1.51 1.52 1.56 1.53 1.59 1.64 1.66 1.66 1.64 1.63 1.60 1.54 1.51 1.51 1.56 1.55 1.54 1.53 1.55 1.46 1.35 1.36
0.72 0.95 0.88 1.20 1.13 1.43 1.07 1.05 1.10 1.16 1.16 1.23 1.21 1.24 1.27 1.33 1.37 1.41 1.45 1.50 1.48 1.47 1.51 1.52 1.53 1.56 1.63 1.74 1.72 1.65 1.60 1.55 1.48 1.49 1.52 1.54 1.53 1.42 1.46 1.48 1.32 1.34 1.39 1.39
0.97 1.07 1.03 0.99 1.05 1.34 1.18 1.16 1.13 1.14 1.15 1.10 1.22 1.34 1.38 1.42 1.45 1.40 1.49 1.59 1.51 1.56 1.57 1.62 1.63 1.63 1.67 1.72 1.69 1.62 1.55 1.52 1.51 1.51 1.51 1.50 1.50 1.44 1.34 1.36 1.31 1.28 1.26 1.22
1.15 1.54 1.18 1.15 1.17 1.20 1.17 1.16 1.15 1.13 1.12 1.11 1.13 1.19 1.19 1.25 1.37 1.38 1.43 1.50 1.80 1.56 1.71 1.78 1.69 1.61 1.69 1.72 1.68 1.63 1.59 1.55 1.55 1.53 1.53 1.52 1.48 1.47 1.46 1.35 1.25 1.18 1.13 1.05
1.16 1.15 1.44 1.44 1.32 1.27 1.15 1.05 1.02 1.01 1.04 1.08 1.14 1.14 1.14 1.12 1.14 1.20 1.27 1.20 1.25 1.70 1.63 1.68 1.53 1.50 1.63 1.66 1.60 1.60 1.54 1.51 1.53 1.55 1.54 1.55 1.51 1.45 1.36 1.26 1.13 1.02 0.98 0.96
1.24 1.02 1.21 1.24 1.14 1.07 1.04 1.02 0.99 0.99 0.99 1.06 1.09 1.07 1.04 1.04 1.05 1.09 1.15 1.35 1.38 1.34 1.52 1.62 1.64 1.61 1.65 1.65 1.59 1.57 1.54 1.55 1.53 1.53 1.51 1.47 1.38 1.29 1.22 1.16 1.12 1.06 1.04 1.02
0.96 0.95 0.93 0.93 0.94 0.94 0.91 0.93 0.95 0.95 0.95 0.94 0.97 1.03 1.03 0.94 0.91 1.01 1.02 1.17 1.46 1.52 1.51 1.56 1.56 1.63 1.64 1.60 1.54 1.54 1.53 1.49 1.49 1.51 1.44 1.40 1.32 1.23 1.15 1.12 1.11 1.11 1.11 1.15
1.12 1.02 0.93 0.89 0.87 0.88 0.92 0.94 0.94 0.91 0.87 0.90 0.92 0.90 0.87 0.85 0.84 0.89 1.01 1.12 1.14 1.14 1.30 1.37 1.59 1.63 1.54 1.45 1.44 1.45 1.48 1.41 1.33 1.30 1.26 1.20 1.15 1.09 1.08 1.06 1.05 1.04 1.08 1.13
0.95 0.89 0.91 0.93 0.95 0.92 0.90 0.89 0.88 0.88 0.89 0.89 0.87 0.85 0.87 0.86 0.90 0.93 0.97 0.95 0.93 0.93 1.06 1.26 1.31 1.34 1.36 1.38 1.41 1.44 1.44 1.37 1.20 1.16 1.14 1.14 1.15 1.11 1.08 1.07 1.04 1.02 1.05 1.05
0.90 0.93 0.93 0.90 0.93 0.92 0.87 0.84 0.84 0.85 0.88 0.88 0.88 0.86 0.79 0.80 0.88 0.94 1.00 0.97 1.01 1.08 1.23 1.29 1.37 1.40 1.45 1.45 1.46 1.44 1.34 1.29 1.21 1.18 1.15 1.10 1.05 0.99 0.97 0.97 0.94 0.93 0.92 0.96
0.92 0.94 0.94 0.94 0.94 0.90 0.86 0.85 0.88 0.87 0.90 0.91 0.88 0.86 0.85 0.90 0.91 0.95 0.90 0.93 1.07 1.15 1.29 1.37 1.40 1.45 1.49 1.48 1.43 1.38 1.34 1.26 1.18 1.17 1.15 1.11 1.05 0.98 0.95 0.90 0.90 0.90 0.88 0.97
0.94 0.97 0.99 1.00 0.96 0.93 0.92 0.96 1.00 0.99 0.97 0.97 0.94 0.93 0.88 0.94 0.89 0.98 0.99 0.92 1.05 1.15 1.21 1.22 1.25 1.27 1.35 1.39 1.35 1.31 1.27 1.16 1.08 1.08 1.06 1.06 1.00 0.95 0.94 0.94 0.92 0.96 0.97 0.99
0.98 1.00 1.00 0.96 0.92 0.96 1.01 0.98 1.00 1.02 0.96 0.93 0.91 0.92 0.92 0.88 0.92 0.85 0.84 0.98 1.04 1.08 1.15 1.19 1.23 1.27 1.27 1.22 1.19 1.17 1.16 1.11 1.10 1.07 1.08 1.04 1.04 1.04 0.98 0.96 0.97 1.03 1.08 1.06
0.98 0.99 0.98 1.00 1.02 0.98 0.93 0.99 1.03 1.01 0.97 1.00 0.94 0.90 0.94 0.85 0.92 0.97 0.95 0.93 0.95 0.95 1.00 1.03 1.08 1.09 1.14 1.13 1.03 1.02 1.03 1.03 1.02 0.99 0.97 0.96 0.98 1.04 1.04 1.01 1.03 1.08 1.08 1.09
1.08 1.04 1.07 1.01 0.99 0.97 0.97 1.00 0.99 1.00 1.00 0.93 0.92 0.96 0.99 0.91 0.87 0.83 0.83 0.79 0.84 0.93 0.85 0.83 0.77 0.78 0.87 0.96 0.99 1.01 1.03 1.04 1.04 1.05 1.04 1.07 1.06 1.03 1.03 1.03 1.02 1.01 1.00 1.00
1.08 1.06 1.02 1.01 0.98 0.94 0.95 0.98 0.92 0.97 0.98 0.87 0.87 0.89 0.88 0.89 0.91 0.94 0.84 0.83 0.88 0.87 0.93 0.93 0.87 0.88 0.90 0.86 0.83 0.87 0.83 0.85 0.91 0.97 1.02 1.03 1.07 1.06 1.03 1.00 0.96 0.93 0.93 0.95
1.03 0.97 1.03 1.02 0.94 0.96 0.96 0.91 0.87 0.82 0.84 0.85 0.81 0.85 0.86 0.87 0.79 0.79 0.79 0.85 0.79 0.80 0.85 0.93 0.91 0.87 0.89 0.89 0.87 0.87 0.83 0.87 0.83 0.78 0.76 0.78 0.78 0.76 0.74 0.76 0.79 0.80 0.80 0.80